Погода в Синем Гае

Россия / Приморский край     44°27′28″N   132°35′28″E
темп.,
°C
ветер,
м/с
пор.,
м/с
влажн.,
%
обл.,
%
осадки,
мм/ч
давл.,
гПа
погр.,
м
6 мая, чт
чт601:00+8ююз7138591 0.4 1003283
04:00+7ююз715805 0.5 1003285
07:00+7ююз715783 0.0 1004292
10:00+13ююз811581 0.0 1005575
13:00+17ююз710445 0.0 10041254
16:00+19ю71045100 0.0 10021028
19:00+16ююз9165375 0.0 1002427
22:00+11ююз4980100 0.9 1004215
7 мая, пт
пт701:00+9ю410820 0.2 1004188
04:00+8ююз358749 0.2 100390
07:00+8ю48863 0.0 1001154
10:00+15ю71260100 0.0 999870
13:00+15ююз71555100 0.0 9961252
16:00+13ю61364100 0.3 991913
19:00+13ююз10167120 0.1 9891175
22:00+10ююз6118481 0.4 989353
8 мая, сб
сб801:00+9ююз81387100 0.0 988616
04:00+9юз5987100 0.3 989357
07:00+8юз712847 0.1 992364
10:00+12юз786516 0.1 9921012
13:00+11ююз61173100 0.1 9921065
16:00+13ююз4864100 0.3 9881088
19:00+10ююз4892100 3.4 988554
22:00+8зсз5991100 6.6 989543
9 мая, вс
вс901:00+6зсз91388100 1.3 991824
04:00+6зсз81382100 1.5 992973
07:00+5зсз61490100 2.1 9941045
10:00+6зсз71387100 2.8 997936
13:00+7зсз71280100 0.1 9991051
16:00+9ссз51073100 0.1 1000920
19:00+8с167998 0.1 1002205
22:00+6сз228373 0.1 100425
10 мая, пн
пн1001:00+6зюз34845 0.0 100540
04:00+5зюз33795 0.0 100631
07:00+5зюз12785 0.0 100722
10:00+9сз35623 0.0 1008939
13:00+12с345573 0.0 1009782
16:00+13св335083 0.0 1008744
19:00+12ссв346599 0.0 1009139
22:00+9в337680 0.0 101042